Home > Weather > Saint-Denis > Past weeks

Flag for France Weather for the Past 2 Weeks in Saint-Denis, Île-de-France, France

Now
45 °F

Passing clouds.


Feels Like: 43 °F
Forecast: 33 / 65 °F
Wind: 3 mph from North

Location: Paris Le Bourget Airport

Current Time: May 2, 2016 at 1:46:42 AM

Latest Report: May 2, 2016 at 1:00 AM


Visibility: N/A

Pressure: 30.36 "Hg

Humidity: 66%

Dew Point: 34 °F

Location of Saint-DenisLocation

Historic Weather in Saint-Denis — Graph

°F

Saint-Denis Temperature Yesterday

Maximum temperature yesterday: 59 °F (at 3:30 PM)
Minimum temperature yesterday: 36 °F (at 6:00 AM)
Average temperature yesterday: 50 °F

High & Low Weather Summary for the Past Weeks

 TemperatureHumidityPressure
High70 °F (Apr 21, 4:00 PM)93% (Apr 17, 6:00 AM)30.36 "Hg (Apr 17, 6:00 AM)
Low32 °F (Apr 28, 7:00 AM)29% (Apr 18, 7:30 PM)29.71 "Hg (Apr 26, 1:00 AM)
Average48 °F64%30.06 "Hg
* Reported Midnight between Apr 16 and Apr 17 — May 2 12:30 AM, Saint-Denis, Weather by CustomWeather, © 2016

Note: Actual official high and low records may vary slightly from our data, if they occured in-between our weather recording intervals... More about our weather records

Advertising

Saint-Denis Weather History for the Previous 24 Hours

Scroll right to see more
 ConditionsComfort  
Time TempWeatherWind HumidityBarometerVisibility
12:30 AM
Mon, May 2
45 °FClear.3 mph66%30.36 "Hg10 mi
12:00 AM46 °FClear.3 mph62%30.36 "Hg10 mi
11:30 PM
Sun, May 1
48 °FClear.3 mph58%30.36 "Hg10 mi
11:00 PM48 °FPassing clouds.5 mph62%30.36 "HgN/A
10:30 PM50 °FPassing clouds.7 mph58%30.36 "HgN/A
10:00 PM52 °FPassing clouds.8 mph54%30.36 "HgN/A
9:30 PM54 °FPassing clouds.8 mph51%30.36 "HgN/A
9:00 PM55 °FPassing clouds.8 mph47%30.36 "HgN/A
8:30 PM57 °FPassing clouds.9 mph44%30.33 "HgN/A
8:00 PM57 °FPassing clouds.12 mph41%30.33 "HgN/A
7:30 PM59 °FPassing clouds.10 mph36%30.33 "HgN/A
7:00 PM59 °FPassing clouds.12 mph39%30.33 "HgN/A
6:30 PM59 °FPassing clouds.12 mph39%30.33 "HgN/A
6:00 PM59 °FPassing clouds.12 mph39%30.33 "HgN/A
5:30 PM59 °FPassing clouds.12 mph39%30.33 "HgN/A
5:00 PM59 °FPassing clouds.12 mph39%30.33 "HgN/A
4:30 PM59 °FPassing clouds.9 mph39%30.33 "HgN/A
4:00 PM59 °FPassing clouds.12 mph36%30.33 "HgN/A
3:30 PM59 °FPassing clouds.13 mph36%30.33 "HgN/A
3:00 PM57 °FPassing clouds.14 mph39%30.33 "HgN/A
2:30 PM57 °FPassing clouds.12 mph41%30.33 "HgN/A
2:00 PM57 °FPassing clouds.12 mph44%30.33 "HgN/A
1:30 PM55 °FPassing clouds.14 mph44%30.33 "HgN/A
1:00 PM55 °FPassing clouds.14 mph44%30.33 "HgN/A
12:30 PM54 °FPassing clouds.13 mph44%30.33 "HgN/A
12:00 PM54 °FPassing clouds.13 mph44%30.36 "HgN/A
11:30 AM52 °FPassing clouds.14 mph47%30.36 "HgN/A
11:00 AM52 °FPassing clouds.9 mph54%30.36 "HgN/A
10:30 AM48 °FPassing clouds.12 mph66%30.36 "HgN/A
10:00 AM48 °FPassing clouds.10 mph62%30.36 "HgN/A
9:30 AM46 °FPassing clouds.9 mph71%30.36 "HgN/A
9:00 AM45 °FPassing clouds.8 mph76%30.36 "HgN/A
8:30 AM43 °FPassing clouds.6 mph76%30.36 "HgN/A
8:00 AM39 °FSunny.No wind87%30.33 "Hg10 mi
7:30 AM37 °FSunny.1 mph87%30.33 "Hg10 mi
6:30 AM36 °FClear.No wind81%30.33 "Hg10 mi
6:00 AM36 °FClear.No wind87%30.30 "Hg10 mi
5:30 AM37 °FClear.No wind81%30.30 "Hg10 mi
4:30 AM39 °FPassing clouds.5 mph81%30.30 "HgN/A
4:00 AM39 °FPassing clouds.5 mph81%30.30 "HgN/A
3:30 AM41 °FPassing clouds.5 mph81%30.30 "HgN/A
3:00 AM41 °FPassing clouds.7 mph81%30.30 "HgN/A
2:30 AM41 °FPassing clouds.8 mph81%30.27 "HgN/A
2:00 AM43 °FClear.7 mph76%30.27 "Hg10 mi
1:30 AM43 °FPassing clouds.8 mph76%30.27 "HgN/A
1:00 AM43 °FPassing clouds.9 mph76%30.27 "HgN/A
Weather by CustomWeather, © 2016

See weather overviewHow to use our weather pages